Total_Precipitation_Accumulation
0.60 0.77 0.87 0.81 0.83 0.90 0.81 0.76 0.75 0.62 0.50 0.55 0.58 0.58 0.53 0.49 0.45 0.44 0.46 0.44 0.47 0.40 0.36 0.29 0.28 0.29 0.38 0.44 0.47 0.54 0.61 0.60 0.55 0.53 0.62 0.73 0.77 0.88 0.98 1.07 1.18 1.19 1.17 1.24
0.59 0.62 0.56 0.59 0.67 0.82 0.84 0.84 0.79 0.70 0.53 0.53 0.56 0.61 0.53 0.48 0.45 0.38 0.34 0.33 0.38 0.35 0.34 0.30 0.30 0.29 0.30 0.34 0.39 0.47 0.51 0.50 0.45 0.43 0.51 0.64 0.77 0.88 1.06 1.26 1.49 1.43 1.31 1.33
0.58 0.52 0.44 0.48 0.57 0.73 0.75 0.70 0.63 0.71 0.65 0.62 0.70 0.76 0.64 0.54 0.49 0.40 0.32 0.32 0.35 0.33 0.29 0.29 0.30 0.32 0.29 0.31 0.37 0.44 0.47 0.48 0.47 0.54 0.72 1.04 1.34 1.51 1.57 1.61 1.83 1.88 1.74 1.68
0.73 0.50 0.41 0.44 0.50 0.58 0.80 0.57 0.49 0.62 0.82 0.79 0.68 0.83 0.60 0.54 0.59 0.46 0.37 0.33 0.33 0.33 0.31 0.29 0.29 0.34 0.28 0.31 0.39 0.44 0.47 0.56 0.58 0.72 1.05 1.51 1.86 2.01 1.98 2.04 2.12 2.22 2.15 1.97
0.60 0.41 0.41 0.45 0.42 0.50 0.77 0.62 0.63 0.69 0.76 0.71 0.49 0.56 0.49 0.49 0.58 0.48 0.43 0.42 0.41 0.36 0.34 0.33 0.34 0.37 0.35 0.37 0.45 0.52 0.62 0.79 0.96 1.09 1.28 1.61 1.78 1.86 2.00 2.14 2.40 2.59 2.64 2.57
0.45 0.35 0.37 0.38 0.38 0.44 0.58 0.71 0.82 0.82 0.82 0.78 0.40 0.40 0.45 0.45 0.43 0.43 0.43 0.45 0.44 0.37 0.33 0.34 0.41 0.46 0.46 0.53 0.61 0.66 0.84 1.00 1.06 1.18 1.30 1.44 1.53 1.67 1.89 2.08 2.34 2.51 2.54 2.54
0.51 0.43 0.34 0.32 0.46 0.51 0.55 0.79 1.12 1.21 1.12 0.78 0.34 0.34 0.41 0.33 0.29 0.33 0.35 0.34 0.33 0.34 0.35 0.37 0.40 0.48 0.52 0.60 0.68 0.77 0.92 1.08 1.13 1.23 1.33 1.35 1.42 1.54 1.71 1.81 1.86 1.90 1.89 1.91
0.49 0.50 0.33 0.27 0.33 0.42 0.46 0.56 0.93 1.13 0.93 0.66 0.38 0.45 0.42 0.28 0.23 0.21 0.24 0.27 0.31 0.39 0.42 0.44 0.45 0.57 0.66 0.74 0.84 0.93 1.04 1.12 1.17 1.27 1.36 1.34 1.43 1.56 1.65 1.60 1.56 1.62 1.65 1.70
0.41 0.40 0.25 0.23 0.24 0.28 0.43 0.44 0.51 0.65 0.54 0.56 0.45 0.39 0.31 0.20 0.18 0.18 0.24 0.34 0.42 0.49 0.52 0.56 0.59 0.68 0.77 0.84 0.93 1.02 1.14 1.22 1.28 1.29 1.37 1.50 1.57 1.58 1.56 1.44 1.39 1.45 1.39 1.35
0.31 0.39 0.32 0.27 0.29 0.30 0.35 0.44 0.55 0.64 0.71 0.67 0.46 0.41 0.38 0.26 0.25 0.27 0.33 0.42 0.57 0.67 0.70 0.73 0.80 0.87 0.91 0.94 1.03 1.11 1.22 1.34 1.33 1.33 1.45 1.62 1.59 1.37 1.22 1.12 1.15 1.18 1.22 1.26
0.23 0.36 0.41 0.35 0.29 0.31 0.35 0.35 0.45 0.55 0.56 0.77 0.88 0.84 0.67 0.61 0.50 0.54 0.59 0.67 0.85 0.91 0.93 0.90 0.96 1.03 1.01 1.03 1.12 1.16 1.24 1.39 1.41 1.32 1.44 1.46 1.27 1.01 0.90 0.90 0.92 0.92 0.92 0.96
0.20 0.34 0.39 0.31 0.21 0.20 0.29 0.29 0.32 0.54 0.56 0.62 0.95 0.98 0.82 0.84 0.82 0.92 1.01 1.16 1.13 1.11 1.15 1.06 1.00 1.01 0.93 0.92 1.02 1.11 1.24 1.31 1.22 1.19 1.19 1.03 0.85 0.74 0.71 0.69 0.67 0.67 0.70 0.69
0.28 0.38 0.48 0.44 0.38 0.27 0.25 0.20 0.22 0.33 0.52 0.61 0.96 1.00 0.76 0.84 0.94 1.11 1.22 1.24 1.06 0.94 0.88 0.84 0.83 0.77 0.72 0.74 0.79 0.85 1.00 1.07 0.88 0.78 0.82 0.79 0.70 0.66 0.64 0.61 0.59 0.57 0.60 0.63
0.31 0.34 0.42 0.48 0.39 0.25 0.23 0.19 0.19 0.29 0.50 0.54 0.66 0.72 0.66 0.78 0.94 1.04 1.08 0.98 0.77 0.66 0.63 0.60 0.53 0.49 0.53 0.53 0.53 0.51 0.56 0.68 0.63 0.56 0.60 0.62 0.61 0.60 0.62 0.63 0.60 0.56 0.57 0.60
0.31 0.32 0.27 0.25 0.19 0.16 0.16 0.16 0.18 0.22 0.30 0.45 0.51 0.50 0.52 0.58 0.61 0.62 0.66 0.64 0.55 0.50 0.42 0.40 0.39 0.38 0.43 0.43 0.43 0.41 0.38 0.42 0.45 0.46 0.46 0.53 0.57 0.57 0.55 0.57 0.55 0.54 0.53 0.53
0.29 0.29 0.20 0.19 0.16 0.15 0.12 0.10 0.14 0.18 0.23 0.31 0.33 0.33 0.30 0.29 0.26 0.25 0.27 0.32 0.31 0.29 0.26 0.29 0.32 0.34 0.39 0.39 0.37 0.36 0.34 0.33 0.33 0.34 0.36 0.44 0.51 0.53 0.54 0.53 0.51 0.50 0.50 0.51
0.31 0.31 0.29 0.20 0.14 0.18 0.16 0.09 0.11 0.17 0.16 0.20 0.25 0.29 0.29 0.23 0.18 0.15 0.14 0.15 0.17 0.19 0.21 0.23 0.27 0.32 0.38 0.38 0.37 0.37 0.35 0.31 0.31 0.32 0.35 0.41 0.44 0.42 0.46 0.49 0.45 0.42 0.46 0.49
0.26 0.31 0.40 0.30 0.27 0.31 0.15 0.07 0.07 0.10 0.11 0.15 0.17 0.18 0.21 0.18 0.18 0.16 0.13 0.13 0.14 0.16 0.17 0.21 0.24 0.29 0.36 0.38 0.38 0.38 0.37 0.34 0.32 0.32 0.33 0.39 0.40 0.40 0.39 0.42 0.39 0.38 0.43 0.47
0.21 0.32 0.48 0.44 0.36 0.20 0.11 0.09 0.08 0.08 0.10 0.13 0.11 0.10 0.11 0.12 0.16 0.14 0.12 0.11 0.11 0.12 0.14 0.17 0.21 0.30 0.36 0.39 0.43 0.44 0.40 0.37 0.36 0.34 0.32 0.33 0.36 0.39 0.39 0.35 0.34 0.36 0.42 0.45
0.26 0.32 0.50 0.51 0.47 0.29 0.14 0.07 0.08 0.11 0.17 0.15 0.13 0.11 0.11 0.13 0.17 0.15 0.12 0.10 0.10 0.10 0.11 0.14 0.18 0.27 0.33 0.40 0.43 0.45 0.45 0.38 0.34 0.34 0.34 0.35 0.35 0.34 0.36 0.36 0.36 0.37 0.42 0.47
0.36 0.41 0.46 0.46 0.45 0.23 0.10 0.08 0.11 0.21 0.23 0.16 0.14 0.13 0.13 0.14 0.14 0.12 0.09 0.07 0.09 0.10 0.11 0.12 0.17 0.25 0.30 0.37 0.40 0.47 0.48 0.37 0.34 0.40 0.43 0.42 0.38 0.39 0.44 0.46 0.44 0.43 0.43 0.46
0.44 0.48 0.44 0.44 0.48 0.30 0.12 0.13 0.21 0.24 0.16 0.13 0.12 0.12 0.12 0.12 0.11 0.10 0.09 0.09 0.10 0.10 0.12 0.13 0.16 0.21 0.26 0.33 0.39 0.43 0.46 0.43 0.43 0.43 0.45 0.45 0.44 0.45 0.48 0.53 0.54 0.54 0.53 0.52
0.43 0.46 0.46 0.39 0.30 0.19 0.14 0.18 0.20 0.18 0.17 0.13 0.13 0.12 0.11 0.11 0.10 0.10 0.10 0.10 0.10 0.11 0.12 0.14 0.17 0.21 0.24 0.32 0.35 0.40 0.44 0.49 0.47 0.46 0.47 0.47 0.48 0.50 0.49 0.51 0.55 0.57 0.56 0.53
0.37 0.36 0.44 0.39 0.24 0.19 0.19 0.19 0.21 0.19 0.16 0.12 0.12 0.12 0.13 0.12 0.13 0.12 0.12 0.11 0.12 0.14 0.15 0.17 0.21 0.23 0.25 0.32 0.37 0.48 0.50 0.49 0.51 0.52 0.53 0.51 0.49 0.49 0.49 0.50 0.51 0.51 0.52 0.51
0.45 0.49 0.49 0.43 0.31 0.28 0.26 0.23 0.22 0.20 0.15 0.12 0.10 0.11 0.13 0.14 0.14 0.15 0.15 0.13 0.13 0.14 0.16 0.20 0.24 0.26 0.27 0.33 0.38 0.48 0.49 0.49 0.53 0.57 0.56 0.53 0.49 0.46 0.46 0.45 0.46 0.48 0.48 0.52
0.43 0.52 0.57 0.52 0.36 0.35 0.30 0.23 0.20 0.20 0.17 0.13 0.10 0.10 0.11 0.12 0.13 0.15 0.14 0.12 0.12 0.12 0.15 0.19 0.21 0.24 0.26 0.30 0.33 0.39 0.44 0.45 0.49 0.54 0.54 0.51 0.53 0.50 0.46 0.45 0.47 0.54 0.55 0.60